TimeCST,TemperatureF,Dew PointF,Humidity,Sea Level PressureIn,VisibilityMPH,Wind Direction,Wind SpeedMPH,Gust SpeedMPH,PrecipitationIn,Events,Conditions,WindDirDegrees,DateUTC
12:53 AM,32.0,26.1,79,30.05,10.0,SW,9.2,-,N/A,,Clear,230,2013-01-08 06:53:00
1:53 AM,28.9,23.0,78,30.06,10.0,SW,8.1,-,N/A,,Clear,230,2013-01-08 07:53:00
2:53 AM,25.0,21.9,88,30.07,10.0,SW,9.2,-,N/A,,Clear,220,2013-01-08 08:53:00
3:53 AM,25.0,21.9,88,30.07,10.0,SW,8.1,-,N/A,,Clear,220,2013-01-08 09:53:00
4:53 AM,23.0,19.9,88,30.08,9.0,SW,8.1,-,N/A,,Clear,220,2013-01-08 10:53:00
5:53 AM,21.0,19.0,92,30.09,7.0,SW,4.6,-,N/A,,Clear,220,2013-01-08 11:53:00
6:53 AM,17.1,15.1,92,30.11,5.0,Calm,Calm,-,N/A,,Clear,0,2013-01-08 12:53:00
7:14 AM,14.0,14.0,100,30.07,1.8,Calm,Calm,-,N/A,,Clear,0,2013-01-08 13:14:00
7:29 AM,14.0,14.0,100,30.07,0.8,Calm,Calm,-,N/A,,Clear,0,2013-01-08 13:29:00
7:42 AM,15.8,15.8,100,30.08,0.2,Calm,Calm,-,N/A,Fog,Light Freezing Fog,0,2013-01-08 13:42:00
7:53 AM,14.0,14.0,100,30.12,0.2,East,3.5,-,N/A,Fog,Light Freezing Fog,80,2013-01-08 13:53:00
8:01 AM,15.8,15.8,100,30.09,1.0,Calm,Calm,-,N/A,,Clear,0,2013-01-08 14:01:00
8:07 AM,15.8,15.8,100,30.09,3.0,Calm,Calm,-,N/A,,Clear,0,2013-01-08 14:07:00
8:53 AM,19.9,19.9,100,30.14,3.0,Calm,Calm,-,N/A,,Clear,0,2013-01-08 14:53:00
9:00 AM,19.4,19.4,100,30.10,2.5,SSW,3.5,-,N/A,,Clear,200,2013-01-08 15:00:00
9:12 AM,21.2,21.2,100,30.10,3.0,Calm,Calm,-,N/A,,Clear,0,2013-01-08 15:12:00
9:53 AM,25.0,23.0,92,30.14,4.0,SSW,4.6,-,N/A,,Clear,200,2013-01-08 15:53:00
10:53 AM,28.9,25.0,85,30.12,4.0,South,4.6,-,N/A,,Clear,180,2013-01-08 16:53:00
11:53 AM,30.9,27.0,85,30.09,5.0,South,5.8,-,N/A,,Clear,180,2013-01-08 17:53:00
12:53 PM,34.0,27.0,75,30.07,6.0,South,6.9,-,N/A,,Haze,170,2013-01-08 18:53:00
1:53 PM,35.1,28.9,78,30.06,5.0,South,8.1,-,N/A,,Haze,180,2013-01-08 19:53:00
2:53 PM,35.1,28.9,78,30.06,5.0,South,8.1,-,N/A,,Haze,170,2013-01-08 20:53:00
3:53 PM,36.0,30.0,79,30.06,6.0,South,9.2,-,N/A,,Haze,180,2013-01-08 21:53:00
4:53 PM,36.0,30.9,82,30.03,7.0,South,10.4,-,N/A,,Clear,170,2013-01-08 22:53:00
5:53 PM,35.1,30.9,85,30.02,7.0,South,15.0,-,N/A,,Clear,180,2013-01-08 23:53:00
6:53 PM,36.0,32.0,86,30.00,7.0,South,18.4,26.5,N/A,,Clear,170,2013-01-09 00:53:00
7:53 PM,36.0,32.0,86,30.00,7.0,South,21.9,26.5,N/A,,Clear,180,2013-01-09 01:53:00
8:53 PM,35.1,30.9,85,29.98,7.0,South,15.0,-,N/A,,Partly Cloudy,190,2013-01-09 02:53:00
9:53 PM,36.0,30.0,79,29.97,10.0,SSW,17.3,-,N/A,,Mostly Cloudy,210,2013-01-09 03:53:00
11:53 PM,37.9,28.9,70,29.92,10.0,SSW,16.1,-,N/A,,Mostly Cloudy,210,2013-01-09 05:53:00